| time (UTC) | temp F | wind direction | speed knots | gust knots | rain 1hr in | rain 24hr in | rain mn in | humidity % | barometer mb |
| 20260503231507 | 70 | 313 | 3.5 | 7.8 | 0.00 | 0.00 | 0.00 | 24 | 1011.5 |
| 20260503230008 | 69 | 281 | 2.6 | 7.0 | 0.00 | 0.00 | 0.00 | 25 | 1011.7 |
| 20260503224513 | 69 | 276 | 6.1 | 9.6 | 0.00 | 0.00 | 0.00 | 26 | 1011.9 |
| 20260503223020 | 70 | 238 | 7.0 | 13.9 | 0.00 | 0.00 | 0.00 | 28 | 1012.1 |
| 20260503221518 | 69 | 280 | 6.1 | 13.0 | 0.00 | 0.00 | 0.00 | 30 | 1012.3 |
| 20260503220008 | 69 | 288 | 3.5 | 6.1 | 0.00 | 0.00 | 0.00 | 31 | 1012.7 |
| 20260503214517 | 68 | 352 | 3.5 | 8.7 | 0.00 | 0.00 | 0.00 | 27 | 1013.0 |
| 20260503213015 | 68 | 273 | 1.7 | 7.8 | 0.00 | 0.00 | 0.00 | 27 | 1013.2 |
| 20260503211522 | 67 | 234 | 6.1 | 12.2 | 0.00 | 0.00 | 0.00 | 35 | 1013.5 |
| 20260503210023 | 67 | 171 | 3.5 | 7.8 | 0.00 | 0.00 | 0.00 | 31 | 1013.7 |
| 20260503204508 | 67 | 311 | 1.7 | 6.1 | 0.00 | 0.00 | 0.00 | 30 | 1014.0 |
| 20260503203035 | 66 | 302 | 6.1 | 10.4 | 0.00 | 0.00 | 0.00 | 32 | 1014.3 |
| 20260503201522 | 66 | 238 | 2.6 | 7.0 | 0.00 | 0.00 | 0.00 | 34 | 1014.5 |
| 20260503200026 | 65 | 319 | 6.1 | 10.4 | 0.00 | 0.00 | 0.00 | 32 | 1014.7 |
| 20260503194535 | 66 | 247 | 5.2 | 10.4 | 0.00 | 0.00 | 0.00 | 32 | 1014.8 |
| 20260503193015 | 64 | 296 | 5.2 | 9.6 | 0.00 | 0.00 | 0.00 | 35 | 1015.1 |
| 20260503191518 | 65 | 345 | 2.6 | 4.3 | 0.00 | 0.00 | 0.00 | 35 | 1015.4 |
| 20260503190035 | 65 | 329 | 2.6 | 4.3 | 0.00 | 0.00 | 0.00 | 34 | 1015.6 |
| 20260503184526 | 64 | 329 | 2.6 | 6.1 | 0.00 | 0.00 | 0.00 | 35 | 1015.7 |
| 20260503183023 | 64 | 348 | 1.7 | 7.0 | 0.00 | 0.00 | 0.00 | 37 | 1015.8 |
| 20260503181527 | 63 | 302 | 1.7 | 6.1 | 0.00 | 0.00 | 0.00 | 40 | 1016.0 |
| 20260503174525 | 62 | 56 | 0.9 | 5.2 | 0.00 | 0.00 | 0.00 | 43 | 1016.3 |
| 20260503173024 | 61 | 9 | 1.7 | 5.2 | 0.00 | 0.00 | 0.00 | 43 | 1016.5 |
| 20260503171514 | 59 | 290 | 1.7 | 5.2 | 0.00 | 0.00 | 0.00 | 44 | 1016.6 |
| 20260503081529 | 47 | 98 | 1.7 | 3.5 | 0.00 | 0.00 | 0.00 | 59 | 1017.1 |
| 20260503071529 | 49 | 136 | 3.5 | 6.1 | 0.00 | 0.00 | 0.00 | 55 | 1017.3 |
| 20260503054526 | 53 | 268 | 0.0 | 1.7 | 0.00 | 0.00 | 0.00 | 48 | 1016.9 |
| 20260503053017 | 55 | 61 | 0.9 | 4.3 | 0.00 | 0.00 | 0.00 | 45 | 1016.8 |
| 20260503051512 | 54 | 75 | 0.0 | 4.3 | 0.00 | 0.00 | 0.00 | 47 | 1016.8 |
| 20260503050028 | 54 | 304 | 0.0 | 1.7 | 0.00 | 0.00 | 0.00 | 45 | 1016.6 |
| 20260503044518 | 56 | 292 | 1.7 | 7.8 | 0.00 | 0.00 | 0.00 | 44 | 1016.7 |
| 20260503043025 | 57 | 63 | 3.5 | 6.1 | 0.00 | 0.00 | 0.00 | 40 | 1016.6 |
| 20260503041506 | 57 | 70 | 2.6 | 6.1 | 0.00 | 0.00 | 0.00 | 43 | 1016.6 |
| 20260503040024 | 57 | 54 | 3.5 | 5.2 | 0.00 | 0.00 | 0.00 | 41 | 1016.6 |
| 20260503034514 | 58 | 54 | 2.6 | 7.0 | 0.00 | 0.00 | 0.00 | 41 | 1016.5 |
| 20260503033022 | 59 | 59 | 3.5 | 7.8 | 0.00 | 0.00 | 0.00 | 38 | 1016.3 |
| 20260503031528 | 59 | 105 | 3.5 | 12.2 | 0.00 | 0.00 | 0.00 | 37 | 1016.1 |
| 20260503030008 | 60 | 35 | 1.7 | 9.6 | 0.00 | 0.00 | 0.00 | 35 | 1015.9 |
| 20260503024514 | 60 | 107 | 7.0 | 8.7 | 0.00 | 0.00 | 0.00 | 34 | 1015.6 |
| 20260503023020 | 61 | 123 | 0.9 | 13.9 | 0.00 | 0.00 | 0.00 | 31 | 1015.4 |
| 20260503021525 | 62 | 120 | 6.1 | 8.7 | 0.00 | 0.00 | 0.00 | 33 | 1015.2 |
| 20260503020027 | 63 | 335 | 0.0 | 1.7 | 0.00 | 0.00 | 0.00 | 29 | 1015.2 |
| 20260503014510 | 64 | 147 | 0.9 | 1.7 | 0.00 | 0.00 | 0.00 | 28 | 1015.2 |
| 20260503013028 | 65 | 291 | 0.0 | 0.9 | 0.00 | 0.00 | 0.00 | 29 | 1015.2 |
| 20260503011523 | 67 | 352 | 0.0 | 1.7 | 0.00 | 0.00 | 0.00 | 22 | 1015.3 |
| 20260503010034 | 68 | 27 | 0.0 | 1.7 | 0.00 | 0.00 | 0.00 | 22 | 1015.4 |
| 20260503004528 | 68 | 179 | 0.0 | 1.7 | 0.00 | 0.00 | 0.00 | 21 | 1015.4 |
| 20260503003016 | 68 | 18 | 0.0 | 1.7 | 0.00 | 0.00 | 0.00 | 26 | 1015.6 |
| 20260503001529 | 68 | 42 | 0.0 | 1.7 | 0.00 | 0.00 | 0.00 | 26 | 1015.7 |
| 20260503000026 | 67 | 40 | 0.0 | 1.7 | 0.00 | 0.00 | 0.00 | 28 | 1015.7 |
| 20260502234544 | 66 | 26 | 0.0 | 1.7 | 0.00 | 0.00 | 0.00 | 29 | 1015.8 |
| 20260502233026 | 66 | 9 | 0.0 | 1.7 | 0.00 | 0.00 | 0.00 | 30 | 1016.0 |